This is the latest recevied weather packets stored in our database for station/object KK7RJD. If no packets are shown the sender has not sent any weather packets the latest 10 day(s).
| Time | Temp. | Humidity | Pressure | Rain* | Wind** | Luminosity | Snow |
|---|---|---|---|---|---|---|---|
| 1777775878 | 16.11° C | 37% | 1014.5 hPa | 0 mm | - | 0 W/m² | - |
| 1777775575 | 15.56° C | 37% | 1014.6 hPa | 0 mm | - | 1 W/m² | - |
| 1777775271 | 16.11° C | 38% | 1014.5 hPa | 0 mm | - | 1 W/m² | - |
| 1777774971 | 16.67° C | 35% | 1014.3 hPa | 0 mm | - | 2 W/m² | - |
| 1777774668 | 16.67° C | 35% | 1014.3 hPa | 0 mm | - | 4 W/m² | - |
| 1777774364 | 16.67° C | 34% | 1014.3 hPa | 0 mm | - | 6 W/m² | - |
| 1777774062 | 17.22° C | 34% | 1014.2 hPa | 0 mm | - | 9 W/m² | - |
| 1777773759 | 17.22° C | 33% | 1014 hPa | 0 mm | - | 11 W/m² | - |
| 1777773455 | 17.22° C | 33% | 1013.8 hPa | 0 mm | - | 13 W/m² | - |
| 1777773152 | 17.78° C | 32% | 1014.1 hPa | 0 mm | - | 17 W/m² | - |
| 1777772848 | 17.78° C | 32% | 1013.7 hPa | 0 mm | - | 20 W/m² | - |
| 1777772547 | 17.78° C | 32% | 1013.7 hPa | 0 mm | - | 23 W/m² | - |
| 1777772243 | 18.33° C | 31% | 1014 hPa | 0 mm | - | 27 W/m² | - |
| 1777771941 | 18.33° C | 31% | 1013.8 hPa | 0 mm | - | 28 W/m² | - |
| 1777771638 | 18.89° C | 30% | 1013.7 hPa | 0 mm | - | 30 W/m² | - |
| 1777771335 | 18.89° C | 29% | 1013.8 hPa | 0 mm | - | 33 W/m² | - |
| 1777771032 | 18.89° C | 29% | 1013.7 hPa | 0 mm | - | 36 W/m² | - |
| 1777770729 | 19.44° C | 29% | 1013.7 hPa | 0 mm | - | 41 W/m² | - |
| 1777770424 | 19.44° C | 28% | 1013.7 hPa | 0 mm | - | 47 W/m² | - |
| 1777770122 | 20° C | 28% | 1013.5 hPa | 0 mm | - | 56 W/m² | - |
| 1777769819 | 20.56° C | 27% | 1013.5 hPa | 0 mm | - | 66 W/m² | - |
| 1777769516 | 21.11° C | 26% | 1013.4 hPa | 0 mm | - | 111 W/m² | - |
| 1777769212 | 21.67° C | 25% | 1013.6 hPa | 0 mm | - | 100 W/m² | - |
| 1777768911 | 21.67° C | 19% | 1013.4 hPa | 0 mm | - | 108 W/m² | - |
| 1777768608 | 22.22° C | 19% | 1013.4 hPa | 0 mm | - | 142 W/m² | - |
* Rain latest hour (hover to see other rain measurements)
** Current wind speed in m/s (hover to see current wind gust speed)